www.pogodaiklimat.ru

Погода и климат >> Архив погоды >> Беларусь >> Пружаны


ПОГОДА в Пружанах

  • Прогноз погоды в Пружанах
  • Монитор погоды в Пружанах

АРХИВ ПОГОДЫ в Пружанах

Время (UTC), дата Ветер
(напр.,м/с)
 
Видим.   Явления Облачность Т
(С)
Тd
(С)
f
(%)
Тe
(С)
Тes
(С)
Комфортность P
(гПа)
Po
(гПа)
Тmin
(С)
Tmax
(С)
R
(мм)
R24
(мм)
S
(см)
18 11.07 СЗ 3 15 км 10/3 600 м
[Cb calv Ac und]
+17.5 +11.1 66 +18 +18 1009.0 989.4 +20.0 0.0
03 12.07 З 2 10 км н/о +12.5 +10.7 89 +12 +12 1010.0 990.1 +12.0
06 12.07 СЗ 3 20 км 10/4 600 м
[Cb calv Ac trans Ci fib]
+15.5 +9.8 69 +15 +15 1009.0 989.3 +11.7 0.0
09 12.07 СЗ 6 10 км 6 баллов +19.0 +9.5 54 +19 +22 1009.0 989.5
12 12.07 СЗ 5 10 км 3 балла +20.5 +7.8 44 +22 +27 комфорт 1009.0 989.6
15 12.07 СЗ 4 10 км 10 баллов +21.2 +7.1 40 +22 +22 комфорт 1009.0 989.7
18 12.07 СВ 2 10 км 10 баллов +19.7 +9.3 51 +21 +21 комфорт 1009.0 989.6 +21.6
03 13.07 В 1 10 км н/о +9.3 +9.3 100 +8 +9 1010.0 989.8 +8.9
06 13.07 В 2 20 км 6/0
[Ci fib]
+17.5 +12.6 73 +18 +20 1009.0 989.4 +8.6
09 13.07 ЮВ 2 20 км 10/6 600 м
[Cu med, cong Ci fib]
+22.0 +10.8 49 +24 +24 комфорт 1009.0 989.7
12 13.07 СЗ 2 20 км 8/6 1000 м
[Cu med, cong Ci fib]
+24.0 +8.8 38 +25 +25 комфорт 1008.0 988.9
15 13.07 СВ 3 20 км {ливн. осадки} 10/5 600 м
[Cb calv Ac trans Ci fib]
+22.0 +9.5 45 +24 +24 комфорт 1008.0 988.7
18 13.07 С 1 20 км {ливн. осадки} 10/6 600 м
[Cb calv Ac und]
+18.3 +11.8 66 +20 +20 1009.0 989.5 +24.1 0.1
03 14.07 штиль 0 9000 м дымка н/о +12.5 +12.5 100 +12 +12 1010.0 990.1 +12.2
06 14.07 СВ 1 20 км 6/4 600 м
[Cb calv Ac trans Ci fib]
+16.4 +12.7 79 +17 +20 1010.0 990.4 +11.9 0.1
09 14.07 С 3 20 км 8/6 600 м
[Cb calv Ci fib]
+19.8 +10.5 55 +21 +21 комфорт 1010.0 990.6
12 14.07 СЗ 5
{10}
20 км 9/5 600 м
[Cb calv Ac trans Ci fib]
+20.2 +8.8 48 +21 +21 комфорт 1010.0 990.6
15 14.07 СВ 4 20 км 8/5 600 м
[Cb calv Ac trans Ci fib]
+19.2 +9.7 54 +20 +20 1010.0 990.5
18 14.07 С 2 20 км 9/3 600 м
[Cb calv Ac trans]
+17.1 +10.7 66 +17 +17 1011.0 991.4 +21.5
03 15.07 СЗ 2 10 км н/о +13.1 +11.3 89 +12 +12 1012.0 992.1 +12.5
06 15.07 С 2 20 км 3/0
[Ac trans]
+17.0 +10.8 67 +17 +22 1012.0 992.3 +12.3
09 15.07 СВ 3 20 км 6/6 600 м
[Cu Sc]
+20.4 +17.2 82 +24 +29 комфорт 1012.0 992.6
12 15.07 З 2 20 км {ливн. осадки} 8/6 600 м
[Cb calv Ac trans]
+21.0 +7.6 42 +23 +23 комфорт 1012.0 992.6
15 15.07 СВ 2 20 км 8/6 600 м
[Cb calv Ac trans]
+21.8 +7.2 39 +23 +23 комфорт 1011.0 991.7
18 15.07 ЮЗ 1 20 км 4/4 600 м
[Cb calv]
+19.1 +10.6 58 +21 +21 комфорт 1011.0 991.5 +23.3 0.0
03 16.07 ЮЗ 1 10 км н/о +9.0 +9.0 100 +8 +8 1011.0 990.8 +8.7
06 16.07 ЮЗ 1 20 км 3/0
[Ci fib]
+17.6 +11.2 66 +19 +24 1010.0 990.4 +8.4
09 16.07 З 3 20 км 10/6 1000 м
[Cu hum Ci fib]
+22.6 +5.5 33 +23 +23 комфорт 1008.0 988.8
12 16.07 З 5 20 км 10/8 600 м
[Cb calv Ci fib]
+24.1 +4.9 29 +24 +24 комфорт 1007.0 987.9
15 16.07 СЗ 4
{12}
20 км в посл. час ливневой дождь 10/4 600 м
[Cb calv Ac As]
+18.6 +9.4 55 +19 +19 1008.0 988.5
18 16.07 З 3 20 км {ливн. осадки} 10/3 600 м
[Cb calv Ac trans Ci fib]
+16.6 +7.0 53 +16 +16 1008.0 988.4 +24.7 0.0
03 17.07 СЗ 2 10 км н/о +12.5 +11.4 93 +11 +12 1008.0 988.1 +12.5
06 17.07 СЗ 2 20 км 10/4 600 м
[Cb calv Ac As]
+14.3 +10.7 79 +14 +14 1007.0 987.3 +12.1 0.0
09 17.07 З 2 >70 км н/о +15.3 +10.9 75 +15 +30 опасность
простуды
1008.0 988.3
12 17.07 СЗ 3 20 км {ливн. осадки} 9/5 600 м
[Cb calv Ac As]
+17.7 +8.8 56 +18 +18 1007.0 987.5
15 17.07 СЗ 2 8000 м слаб. ливневой дождь 10/10 360 м
[Cb calv]
+15.0 +12.9 87 +15 +15 1008.0 988.3
18 17.07 СЗ 2 10 км 10 баллов +16.2 +10.5 69 +16 +16 1009.0 989.3 +20.2 1
03 18.07 СЗ 3 10 км н/о +13.9 +13.4 97 +13 +13 1010.0 990.2 +12.9
06 18.07 СЗ 5 10 км 10 баллов +15.5 +12.8 84 +14 +14 1010.0 990.3 +12.5 2
09 18.07 СЗ 4 10 км 10 баллов +16.0 +12.9 82 +15 +15 1012.0 992.3
12 18.07 З 4 10 км 10 баллов +21.0 +11.9 56 +23 +23 комфорт 1011.0 991.6
15 18.07 СЗ 4 10 км 10 баллов +21.5 +11.8 54 +24 +24 комфорт 1011.0 991.7

 

Местоположение метеостанции Пружаны (Брестская область, Беларусь): широта 52.55 долгота 24.49 высота над уровнем моря 167 м.

В архиве по умолчанию представлена погода в Пружанах за последнюю неделю. Архивные данные за месяц целиком и за предыдущие месяцы, начиная с января 2011 года, Вы можете получить, выбрав интересующий диапазон дат из раскрывающегося списка и нажав кнопку "Ввод!".


*Определитесь, кто Вы:
робот инопланетянин человек

Внимание! Время в таблицах - всемирное. Для получения местного времени необходимо прибавить поправку, которая равна 3 ч.

Смотрите также архив погоды в соседних городах и на ближайших метеорологических станциях:

Погода в Дрогичине (Брестская область, Беларусь) (57 км)
Погода в Ивацевичах (Брестская область, Беларусь) (61 км)
Погода в Волковыске (Гродненская область, Беларусь) (69 км)
Погода в Бресте (Брестская область, Беларусь) (72 км)
Погода в Высоком (Брестская область, Беларусь) (77 км)
Погода в Тересполе (Польша) (80 км)
Погода в Белостоке (Польша) (108 км)
Погода в Любешове (Волынская область, Украина) (111 км)
Погода в Пинске (Брестская область, Беларусь) (117 км)
Погода в Барановичах (Брестская область, Беларусь) (119 км)

Пояснения к столбцам:

Ветер - указаны скорость ветра в м/с - средняя за 10 мин, порывы в срок и между сроками (в фигурных скобках) и направление, откуда дует ветер: С - северный, СВ - северо-восточный, В - восточный, ЮВ - юго-восточный, Ю - южный, ЮЗ - юго-западный, З - западный, СЗ - северо-западный.
Видимость - горизонтальная дальность видимости в метрах или километрах. При видимости от 1 до 10 км при отсутствии осадков обычно наблюдается дымка, при ухудшении видимости до 1 км и менее - туман. В сухую погоду видимость может ухудшаться дымом, пылью или мглою.
Явления - указаны атмосферные явления, наблюдавшиеся в срок или в последний час перед сроком; фигурными скобками обозначены явления, наблюдавшиеся между сроками (за 1-3 часа до срока); квадратными скобками обозначены град или гололедные отложения с указанием их диаметра в мм.
Облачность - указаны через наклонную черту общая и нижняя облачность в баллах и высота нижней границы облаков в метрах; квадратными скобками обозначены формы облаков: Ci - перистые, Cs - перисто-слоистые, Cc - перисто-кучевые, Ac - высококучевые, As - высокослоистые, Sc - слоисто-кучевые, Ns - слоисто-дождевые, Cu - кучевые, Cb - кучево-дождевые. Подробнее классификацию облаков см. в Атласе облаков (PDF).
T - Температура воздуха - температура, измеренная на высоте 2 м над землей.
Td - Температура точки росы - температура, при понижении до которой содержащийся в воздухе водяной пар достигнет насыщения.
f - Относительная влажность воздуха - влажноcть воздуха, измеренная на высоте 2 м над землей.
Te - Эффективная температура - температура, которую ощущает одетый по сезону человек в тени. Характеристика душности погоды. При расчете учитывается влияние влажности воздуха и скорости ветра на теплоощущения человека.
Tes - Эффективная температура на солнце - температура, которую ощущает человек, с поправкой на солнечный нагрев. Характеристика знойности погоды. Зависит от высоты солнца над горизонтом, облачности и скорости ветра. Ночью, в пасмурную погоду, а также при ветре 12 м/с и более поправка равна нулю.
P - Атмосферное давление - приведенное к уровню моря атмосферное давление.
Po - Атмосферное давление - измеренное на уровне метеостанции атмосферное давление.
Tmin - Минимальная температура - минимум температуры воздуха на высоте 2 м над землей.
Tmax - Максимальная температура - максимум температуры воздуха на высоте 2 м над землей.
R - Количество осадков - Количество выпавших осадков за период времени, мм. При наведении курсора мыши на число - период времени, за который выпало указанное количество осадков.
R24 - Количество осадков - Количество выпавших осадков за 24 часа, мм.
S - Снежный покров - Высота снежного покрова, см. При наведении курсора мыши на число - состояние снежного покрова и степень покрытия местности в баллах.